Retour au catalogue

IRIDE-MS1-EAG2-8

ActifScienceSSO
NORAD 66702·PAYLOAD·🇮🇹 Italy

Lancé Nov 28, 2025 depuis Vandenberg Space Force Base

Loading…

Prochains Passages (prochaines 24 heures)

TLE

FraisSource: Space-Track

Époque: Sep 14, 2026, 14:53 UTC

1 66702U 25276AN  26257.62069428  .00005585  00000-0  25508-3 0  9998
2 66702  97.4118 329.7415 0005666  78.9801 281.2071 15.20970114 44010

Suivez IRIDE-MS1-EAG2-8 en temps réel avec AllMySat

Download on the App Store